Overview Statistics Trail Chart Weather Telemetry Raw packets
 

This is the latest recevied weather packets stored in our database for station/object K5OLV. If no packets are shown the sender has not sent any weather packets the latest 10 day(s).

<< 78 79 80 81 82 83 84 >>
Time Temp. Humidity Pressure Rain* Wind** Luminosity Snow
1788049803 24.44° C 89% 1017 hPa 0 mm - 0 W/m² -
1788049497 24.44° C 88% 1017.2 hPa 0 mm - 0 W/m² -
1788049193 25° C 88% 1017.3 hPa 0 mm - 0 W/m² -
1788048888 25° C 86% 1017 hPa 0 mm - 1 W/m² -
1788048583 25° C 86% 1017.2 hPa 0 mm - 3 W/m² -
1788048280 25° C 87% 1017.1 hPa 0 mm - 5 W/m² -
1788047978 25.56° C 86% 1017.2 hPa 0 mm - 7 W/m² -
1788047672 25.56° C 86% 1017.1 hPa 0 mm - 12 W/m² -
1788047372 25.56° C 86% 1017.3 hPa 0 mm - 14 W/m² -
1788047067 26.11° C 85% 1017.3 hPa 0 mm - 19 W/m² -
1788046771 26.11° C 84% 1017.2 hPa 0 mm - 22 W/m² -
1788046461 26.67° C 83% 1017.3 hPa 0 mm - 25 W/m² -
1788046160 26.67° C 83% 1017.2 hPa 0 mm - 27 W/m² -
1788045855 26.67° C 83% 1017 hPa 0 mm - 30 W/m² -
1788045550 26.67° C 81% 1017.2 hPa 0 mm - 32 W/m² -
1788045245 26.67° C 81% 1017.3 hPa 0 mm - 35 W/m² -
1788044941 27.22° C 81% 1017.3 hPa 0 mm - 39 W/m² -
1788044639 27.22° C 80% 1017.1 hPa 0 mm - 43 W/m² -
1788044339 27.22° C 81% 1017.3 hPa 0 mm - 43 W/m² -
1788044035 27.78° C 78% 1017.4 hPa 0 mm - 52 W/m² -
1788043730 27.78° C 78% 1017.2 hPa 0 mm - 48 W/m² -
1788043425 27.78° C 79% 1017.3 hPa 0 mm - 67 W/m² -
1788043124 27.78° C 76% 1017.2 hPa 0 mm - 84 W/m² -
1788042821 28.33° C 76% 1017.3 hPa 0 mm - 62 W/m² -
1788042519 28.33° C 76% 1017.2 hPa 0 mm - 70 W/m² -

* Rain latest hour (hover to see other rain measurements)
** Current wind speed in m/s (hover to see current wind gust speed)